Regional Weather Roundup
Issued by NWS Cleveland, OH

Home | Current Version | Previous Version | Text Only | Print | Product List | Glossary Off
Versions: 1 2 3 4 5 6 7 8 9 10 11 12 13 14 15 16 17 18 19 20 21 22 23 24 25 26 27 28 29 30 31 32 33 34 35 36 37 38 39 40 41 42 43 44 45 46 47 48 49 50

000
ASUS41 KCLE 260002
RWRCLE
OHIO REGIONAL WEATHER ROUNDUP
NATIONAL WEATHER SERVICE CLEVELAND, OH
800 PM EDT SAT MAR 25 2017

NOTE: "FAIR" INDICATES FEW OR NO CLOUDS BELOW 12,000 FEET WITH NO
SIGNIFICANT WEATHER AND/OR OBSTRUCTIONS TO VISIBILITY.

OHZ001>008-015>018-024>027-034-035-043-044-260100-
   NORTHWEST OHIO

CITY           SKY/WX    TMP DP  RH WIND       PRES   REMARKS
DEFIANCE       CLOUDY    43  39  86 E14G24    30.09F
FINDLAY        CLOUDY    48  40  73 NE16      30.08S
TOLEDO EXPRESS CLOUDY    38  35  89 E17       30.14R
TOLEDO EXEC    CLOUDY    39  36  89 NE15G22   30.16S
LIMA           CLOUDY    57  50  77 E14       30.05S
$$

OHZ009>014-019>023-028>033-038-089-260100-
   NORTHEAST OHIO

CITY           SKY/WX    TMP DP  RH WIND       PRES   REMARKS
CLE-HOPKINS    CLOUDY    43  36  76 N7        30.17S
CLE-LAKEFRONT  CLOUDY    40  37  89 NE15      30.15R
CUY CO. ARPT   CLOUDY    46  39  76 E12       30.17R
LORAIN-ELYRIA  CLOUDY    40  35  83 NE10      30.14S
ASHTABULA      CLOUDY    40  36  86 NE5       30.20F
AKRON-CANTON   CLOUDY    61  48  62 NE12      30.14R
WOOSTER        CLOUDY    61  51  70 E10       30.12R
MANSFIELD      CLOUDY    61  52  72 E8        30.11R
YOUNGSTOWN     CLOUDY    59  49  69 NE6       30.16S
$$

OHZ042-051>053-060>062-070>072-077>081-260100-
  SOUTHWEST OHIO

CITY           SKY/WX    TMP DP  RH WIND       PRES   REMARKS
CINC-COVINGTON CLOUDY    71  51  49 SE12      30.00S
CINC-LUNKEN    CLOUDY    72  51  47 SE7       30.01S
HAMILTON       CLOUDY    73  52  47 SE5       30.01S
DAYTON         CLOUDY    66  50  56 SE10      30.04R
WRIGHT-PAT AFB NOT AVBL
DAYTON GENERAL MOCLDY    68  51  54 SE9       30.02S
WILMINGTON     MOCLDY    63  52  67 E6        30.05S
$$

OHZ036-037-039>041-045>050-054>059-063>069-073>076-082>088-260100-
  CENTRAL AND SOUTHEAST OHIO

CITY           SKY/WX    TMP DP  RH WIND       PRES   REMARKS
COLUMBUS       MOCLDY    70  50  49 SE3       30.06S
OSU AIRPORT    PTCLDY    68  50  52 E5        30.06S
BOLTON FIELD   NOT AVBL
RICKENBACK AFB PTCLDY    67  50  55 SE3       30.06S
NEWARK         CLOUDY    68  49  50 E5        30.07S
MARION         MOCLDY    65  51  60 SE6       30.08R
LANCASTER      CLOUDY    65  50  58 SE3       30.07F
ZANESVILLE     CLOUDY    69  49  48 SE5       30.09S
NEW PHILLY     NOT AVBL
$$




USA.gov is the U.S. government's official web portal to all federal, state and local government web resources and services.